Weather History for Cortez, CO

Change the Weather History Date:

Friday, April 19, 2013

  Actual Average Record
Temperature  
Mean Temperature 36 °F 48 °F  
Max Temperature 56 °F 66 °F 75 °F (1999)
Min Temperature 15 °F 30 °F 15 °F (2013)
Degree Days  
Heating Degree Days 29 17  
Month to date heating degree days 376 371  
Since 1 July heating degree days 5974 5901  
Cooling Degree Days 0 0  
Month to date cooling degree days 0 0  
Year to date cooling degree days 0 0  
Moisture  
Dew Point 7 °F    
Average Humidity 39    
Maximum Humidity 61    
Minimum Humidity 16    
Precipitation  
Precipitation 0.00 in 0.04 in 0.12 in (2011)
Month to date precipitation 0.07 0.76  
Year to date precipitation 2.58 3.84  
Sea Level Pressure  
Sea Level Pressure 30.18 in    
Wind  
Wind Speed 7 mph (North)    
Max Wind Speed 18 mph    
Max Gust Speed 28 mph    
Visibility 10 miles    
Events      
T = Trace of Precipitation, MM = Missing Value Source: NWS Daily Summary

Daily Weather History Graph

Daily Weather History Graph

Search for Another Location

Airport:

Trip Planner

Search our weather history database for the weather conditions in past years. The results will help you decide how hot, cold, wet, or windy it might be!

Date:

Astronomy

Apr. 19, 2013 Rise Set
Actual Time 6:34 AM MDT 7:53 PM MDT
Civil Twilight 6:06 AM MDT 8:20 PM MDT
Nautical Twilight 5:34 AM MDT 8:53 PM MDT
Astronomical Twilight 5:00 AM MDT 9:27 PM MDT
Moon 1:48 PM MDT (4/19) 2:43 AM MDT (4/19)
Length of Visible Light 14h 13m
Length of Day
13h 19m
Waxing Gibbous, 62% of the Moon is Illuminated
Apr 19
Waxing Gibbous
Apr 25
Full
May 2
Last Quarter
May 9
New
May 17
First Quarter

Hourly Weather History & Observations

Time (MDT) Temp. Windchill Dew Point Humidity Pressure Visibility Wind Dir Wind Speed Gust Speed Precip Events Conditions
12:53 AM 21.0 °F 11.4 °F 3.9 °F 48% 30.32 in 10.0 mi ENE 8.1 mph - N/A   Clear
1:53 AM 19.0 °F - 3.0 °F 50% 30.32 in 10.0 mi Calm Calm - N/A   Clear
2:53 AM 18.0 °F - 3.9 °F 54% 30.32 in 10.0 mi Calm Calm - N/A   Clear
3:53 AM 17.1 °F 7.6 °F 3.9 °F 56% 30.32 in 10.0 mi ENE 6.9 mph - N/A   Clear
4:53 AM 15.1 °F 5.2 °F 3.9 °F 61% 30.32 in 10.0 mi East 6.9 mph - N/A   Clear
5:53 AM 16.0 °F 6.3 °F 5.0 °F 62% 30.31 in 10.0 mi ENE 6.9 mph - N/A   Clear
6:53 AM 16.0 °F 4.4 °F 5.0 °F 62% 30.32 in 10.0 mi ENE 9.2 mph - N/A   Clear
7:53 AM 26.1 °F 20.5 °F 8.1 °F 47% 30.32 in 10.0 mi NNE 4.6 mph - N/A   Clear
8:53 AM 35.1 °F 32.2 °F 9.0 °F 34% 30.28 in 10.0 mi Variable 3.5 mph - N/A   Clear
9:53 AM 42.1 °F 36.6 °F 6.1 °F 23% 30.27 in 10.0 mi WNW 9.2 mph - N/A   Clear
10:53 AM 45.0 °F 41.8 °F 6.1 °F 20% 30.25 in 10.0 mi Variable 5.8 mph - N/A   Clear
11:53 AM 48.9 °F - 7.0 °F 18% 30.23 in 10.0 mi West 8.1 mph - N/A   Clear
12:53 PM 51.1 °F - 7.0 °F 17% 30.19 in 10.0 mi NNW 8.1 mph - N/A   Clear
1:53 PM 52.0 °F - 7.0 °F 16% 30.16 in 10.0 mi WNW 12.7 mph 16.1 mph N/A   Clear
2:53 PM 54.0 °F - 8.1 °F 16% 30.14 in 10.0 mi WNW 15.0 mph 20.7 mph N/A   Clear
3:53 PM 53.1 °F - 8.1 °F 16% 30.11 in 10.0 mi WNW 11.5 mph 23.0 mph N/A   Clear
4:53 PM 54.0 °F - 9.0 °F 17% 30.08 in 10.0 mi West 12.7 mph - N/A   Clear
5:53 PM 54.0 °F - 9.0 °F 17% 30.07 in 10.0 mi WNW 12.7 mph 20.7 mph N/A   Clear
6:53 PM 53.1 °F - 8.1 °F 16% 30.05 in 10.0 mi WSW 9.2 mph - N/A   Clear
7:53 PM 48.0 °F - 8.1 °F 20% 30.03 in 10.0 mi WSW 4.6 mph - N/A   Clear
8:53 PM 45.0 °F - 7.0 °F 21% 30.01 in 10.0 mi Calm Calm - N/A   Clear
9:53 PM 37.9 °F 33.5 °F 10.0 °F 32% 30.02 in 10.0 mi ENE 5.8 mph - N/A   Scattered Clouds
10:53 PM 39.9 °F 33.9 °F 10.9 °F 31% 30.00 in 10.0 mi NE 9.2 mph - N/A   Overcast
11:53 PM 41.0 °F 35.2 °F 12.0 °F 31% 29.98 in 10.0 mi ENE 9.2 mph - N/A   Overcast